Time,TemperatureF,DewpointF,PressureIn,WindDirection,WindDirectionDegrees,WindSpeedMPH,WindSpeedGustMPH,Humidity,HourlyPrecipIn,Conditions,Clouds,dailyrainin,SolarRadiationWatts/m^2,SoftwareType,DateUTC
2014-03-14 00:01:00,25.0,5.0,-100.00,South,182,2.0,9.0,42,0.00,,,0.00,0.000000,,2014-03-14 04:01:00,
2014-03-14 00:43:00,25.0,5.0,-100.00,South,182,2.0,9.0,42,0.00,,,0.00,0.000000,,2014-03-14 04:43:00,
2014-03-14 00:53:00,25.0,5.0,-100.00,South,182,2.0,9.0,42,0.00,,,0.00,0.000000,,2014-03-14 04:53:00,
2014-03-14 01:01:00,24.0,6.0,-100.00,NNW,340,2.0,6.0,45,0.00,,,0.00,0.000000,,2014-03-14 05:01:00,
2014-03-14 01:43:00,24.0,6.0,-100.00,NNW,340,2.0,6.0,45,0.00,,,0.00,0.000000,,2014-03-14 05:43:00,
2014-03-14 01:52:00,24.0,6.0,-100.00,NNW,340,2.0,6.0,45,0.00,,,0.00,0.000000,,2014-03-14 05:52:00,
2014-03-14 02:01:00,23.0,5.0,-100.00,WSW,254,2.0,5.0,46,0.00,,,0.00,0.000000,,2014-03-14 06:01:00,
2014-03-14 02:42:00,23.0,5.0,-100.00,WSW,254,2.0,5.0,46,0.00,,,0.00,0.000000,,2014-03-14 06:42:00,
2014-03-14 02:52:00,23.0,5.0,-100.00,WSW,254,2.0,5.0,46,0.00,,,0.00,0.000000,,2014-03-14 06:52:00,
2014-03-14 03:01:00,24.0,7.0,-100.00,SSW,206,1.0,5.0,47,0.00,,,0.00,0.000000,,2014-03-14 07:01:00,
2014-03-14 03:42:00,24.0,7.0,-100.00,SSW,206,1.0,5.0,47,0.00,,,0.00,0.000000,,2014-03-14 07:42:00,
2014-03-14 03:52:00,24.0,7.0,-100.00,SSW,206,1.0,5.0,47,0.00,,,0.00,0.000000,,2014-03-14 07:52:00,
2014-03-14 04:01:00,25.0,7.0,-100.00,SSW,211,3.0,7.0,45,0.00,,,0.00,0.000000,,2014-03-14 08:01:00,
2014-03-14 04:42:00,25.0,7.0,-100.00,SSW,211,3.0,7.0,45,0.00,,,0.00,0.000000,,2014-03-14 08:42:00,
2014-03-14 04:52:00,25.0,7.0,-100.00,SSW,211,3.0,7.0,45,0.00,,,0.00,0.000000,,2014-03-14 08:52:00,
2014-03-14 05:01:00,26.0,4.0,-100.00,SW,215,3.0,7.0,39,0.00,,,0.00,0.000000,,2014-03-14 09:01:00,
2014-03-14 05:43:00,26.0,4.0,-100.00,SW,215,3.0,7.0,39,0.00,,,0.00,0.000000,,2014-03-14 09:43:00,
2014-03-14 05:54:00,26.0,4.0,-100.00,SW,215,3.0,7.0,39,0.00,,,0.00,0.000000,,2014-03-14 09:54:00,
2014-03-14 06:01:00,29.0,5.0,-100.00,NE,40,1.0,5.0,36,0.00,,,0.00,0.000000,,2014-03-14 10:01:00,
2014-03-14 06:43:00,29.0,5.0,-100.00,NE,40,1.0,5.0,36,0.00,,,0.00,0.000000,,2014-03-14 10:43:00,
2014-03-14 06:53:00,29.0,5.0,-100.00,NE,40,1.0,5.0,36,0.00,,,0.00,0.000000,,2014-03-14 10:53:00,
2014-03-14 07:01:00,28.0,7.0,-100.00,ESE,123,2.0,4.0,40,0.00,,,0.00,0.000000,,2014-03-14 11:01:00,
2014-03-14 07:42:00,28.0,7.0,-100.00,ESE,123,2.0,4.0,40,0.00,,,0.00,0.000000,,2014-03-14 11:42:00,
2014-03-14 07:52:00,28.0,7.0,-100.00,ESE,123,2.0,4.0,40,0.00,,,0.00,0.000000,,2014-03-14 11:52:00,
2014-03-14 08:01:00,27.0,6.0,-100.00,ENE,72,2.0,5.0,41,0.00,,,0.00,6.000000,,2014-03-14 12:01:00,
2014-03-14 08:42:00,27.0,6.0,-100.00,ENE,72,2.0,5.0,41,0.00,,,0.00,6.000000,,2014-03-14 12:42:00,
2014-03-14 08:52:00,27.0,6.0,-100.00,ENE,72,2.0,5.0,41,0.00,,,0.00,6.000000,,2014-03-14 12:52:00,
2014-03-14 09:01:00,31.0,10.0,-100.00,South,185,1.0,4.0,40,0.00,,,-99.99,93.000000,,2014-03-14 13:01:00,
2014-03-14 09:42:00,31.0,10.0,-100.00,South,185,1.0,4.0,40,0.00,,,-99.99,93.000000,,2014-03-14 13:42:00,
2014-03-14 09:52:00,31.0,10.0,-100.00,South,185,1.0,4.0,40,0.00,,,-99.99,93.000000,,2014-03-14 13:52:00,
2014-03-14 10:01:00,38.0,13.0,-100.00,SW,214,2.0,4.0,36,0.00,,,0.00,323.000000,,2014-03-14 14:01:00,
2014-03-14 10:42:00,38.0,13.0,-100.00,SW,214,2.0,4.0,36,0.00,,,0.00,323.000000,,2014-03-14 14:42:00,
2014-03-14 10:52:00,38.0,13.0,-100.00,SW,214,2.0,4.0,36,0.00,,,0.00,323.000000,,2014-03-14 14:52:00,
2014-03-14 11:01:00,46.0,15.0,-100.00,SSE,156,2.0,7.0,28,0.00,,,0.00,598.000000,,2014-03-14 15:01:00,
2014-03-14 11:44:00,46.0,15.0,-100.00,SSE,156,2.0,7.0,28,0.00,,,0.00,598.000000,,2014-03-14 15:44:00,
2014-03-14 11:53:00,46.0,15.0,-100.00,SSE,156,2.0,7.0,28,0.00,,,0.00,598.000000,,2014-03-14 15:53:00,
2014-03-14 12:01:00,51.0,16.0,-100.00,SSW,193,6.0,12.0,25,0.00,,,0.00,764.000000,,2014-03-14 16:01:00,
2014-03-14 12:43:00,51.0,16.0,-100.00,SSW,193,6.0,12.0,25,0.00,,,0.00,764.000000,,2014-03-14 16:43:00,
2014-03-14 12:54:00,51.0,16.0,-100.00,SSW,193,6.0,12.0,25,0.00,,,0.00,764.000000,,2014-03-14 16:54:00,
2014-03-14 13:01:00,56.0,19.0,-100.00,SSW,198,6.0,14.0,23,0.00,,,0.00,869.000000,,2014-03-14 17:01:00,
2014-03-14 13:43:00,56.0,19.0,-100.00,SSW,198,6.0,14.0,23,0.00,,,0.00,869.000000,,2014-03-14 17:43:00,
2014-03-14 13:52:00,56.0,19.0,-100.00,SSW,198,6.0,14.0,23,0.00,,,0.00,869.000000,,2014-03-14 17:52:00,
2014-03-14 14:01:00,57.0,19.0,-100.00,SSW,200,6.0,12.0,22,0.00,,,0.00,891.000000,,2014-03-14 18:01:00,
2014-03-14 14:42:00,57.0,19.0,-100.00,SSW,200,6.0,12.0,22,0.00,,,0.00,891.000000,,2014-03-14 18:42:00,
2014-03-14 14:52:00,57.0,19.0,-100.00,SSW,200,6.0,12.0,22,0.00,,,0.00,891.000000,,2014-03-14 18:52:00,
2014-03-14 15:01:00,59.0,19.0,-100.00,SSW,204,7.0,15.0,21,0.00,,,0.00,819.000000,,2014-03-14 19:01:00,
2014-03-14 15:42:00,59.0,19.0,-100.00,SSW,204,7.0,15.0,21,0.00,,,0.00,819.000000,,2014-03-14 19:42:00,
2014-03-14 15:53:00,59.0,19.0,-100.00,SSW,204,7.0,15.0,21,0.00,,,0.00,819.000000,,2014-03-14 19:53:00,
2014-03-14 16:01:00,60.0,21.0,-100.00,SSW,206,11.0,21.0,22,0.00,,,0.00,672.000000,,2014-03-14 20:01:00,
2014-03-14 16:42:00,60.0,21.0,-100.00,SSW,206,11.0,21.0,22,0.00,,,0.00,672.000000,,2014-03-14 20:42:00,
2014-03-14 16:52:00,60.0,21.0,-100.00,SSW,206,11.0,21.0,22,0.00,,,0.00,672.000000,,2014-03-14 20:52:00,
2014-03-14 17:01:00,60.0,20.0,-100.00,SSW,207,8.0,18.0,21,0.00,,,0.00,433.000000,,2014-03-14 21:01:00,
2014-03-14 17:43:00,60.0,20.0,-100.00,SSW,207,8.0,18.0,21,0.00,,,0.00,433.000000,,2014-03-14 21:43:00,
2014-03-14 17:53:00,60.0,20.0,-100.00,SSW,207,8.0,18.0,21,0.00,,,0.00,433.000000,,2014-03-14 21:53:00,
2014-03-14 18:01:00,55.0,16.0,-100.00,SSW,197,6.0,19.0,21,0.00,,,0.00,250.000000,,2014-03-14 22:01:00,
2014-03-14 18:43:00,55.0,16.0,-100.00,SSW,197,6.0,19.0,21,0.00,,,0.00,250.000000,,2014-03-14 22:43:00,
2014-03-14 18:53:00,55.0,16.0,-100.00,SSW,197,6.0,19.0,21,0.00,,,0.00,250.000000,,2014-03-14 22:53:00,
2014-03-14 19:01:00,52.0,17.0,-100.00,SSW,202,4.0,15.0,25,0.00,,,0.00,73.000000,,2014-03-14 23:01:00,
2014-03-14 19:43:00,52.0,17.0,-100.00,SSW,202,4.0,15.0,25,0.00,,,0.00,73.000000,,2014-03-14 23:43:00,
2014-03-14 19:53:00,52.0,17.0,-100.00,SSW,202,4.0,15.0,25,0.00,,,0.00,73.000000,,2014-03-14 23:53:00,
2014-03-14 20:01:00,49.0,17.0,-100.00,SSW,204,6.0,16.0,28,0.00,,,0.00,7.000000,,2014-03-15 00:01:00,
2014-03-14 20:42:00,49.0,17.0,-100.00,SSW,204,6.0,16.0,28,0.00,,,0.00,7.000000,,2014-03-15 00:42:00,
2014-03-14 20:52:00,49.0,17.0,-100.00,SSW,204,6.0,16.0,28,0.00,,,0.00,7.000000,,2014-03-15 00:52:00,
2014-03-14 21:01:00,47.0,16.0,-100.00,SSW,209,5.0,11.0,29,0.00,,,0.00,0.000000,,2014-03-15 01:01:00,
2014-03-14 21:42:00,47.0,16.0,-100.00,SSW,209,5.0,11.0,29,0.00,,,0.00,0.000000,,2014-03-15 01:42:00,
2014-03-14 21:52:00,47.0,16.0,-100.00,SSW,209,5.0,11.0,29,0.00,,,0.00,0.000000,,2014-03-15 01:52:00,
2014-03-14 22:01:00,46.0,17.0,-100.00,SW,216,7.0,12.0,31,0.00,,,0.00,0.000000,,2014-03-15 02:01:00,
2014-03-14 22:42:00,46.0,17.0,-100.00,SW,216,7.0,12.0,31,0.00,,,0.00,0.000000,,2014-03-15 02:42:00,
2014-03-14 22:52:00,46.0,17.0,-100.00,SW,216,7.0,12.0,31,0.00,,,0.00,0.000000,,2014-03-15 02:52:00,
2014-03-14 23:01:00,45.0,18.0,-100.00,SSW,211,4.0,13.0,33,0.00,,,0.00,0.000000,,2014-03-15 03:01:00,
2014-03-14 23:43:00,45.0,18.0,-100.00,SSW,211,4.0,13.0,33,0.00,,,0.00,0.000000,,2014-03-15 03:43:00,
2014-03-14 23:54:00,45.0,18.0,-100.00,SSW,211,4.0,13.0,33,0.00,,,0.00,0.000000,,2014-03-15 03:54:00,